Private Wetterstation Wechselburg
Wetterdaten: Donnerstag, 17.11.2011
Datum Zeit Temp. +2m Bodentemp. Temp.+5cm Temp. Wind Windchill X Diff Temp. Feuchte +2m Feuchte +5cm Sonnenschein Luftdruck Regen Wind Richtung Richtung Sonnenschein UV Taupunkt Windchill Windben
17.11.2011 00:00 -1,6 C 9,3 C -0,9 C -1,6 C -1,6 C 0,0 C 93 % 93 % 0 % 1025,5 hPa 0,0 l/m 0,6 km/h (0 Bft) NW 315 0 min 0,0 UV-I -2,6 C -1,6 C 4,7 km/h (1 Bft)
17.11.2011 00:04 -1,5 C 9,3 C -1,0 C -1,5 C -1,6 C 0,0 C 93 % 93 % 0 % 1025,5 hPa 0,0 l/m 0,6 km/h (0 Bft) SW 225 0 min 0,0 UV-I -2,5 C -1,6 C 0,0 km/h (0 Bft)
17.11.2011 00:09 -1,5 C 9,3 C -0,9 C -1,5 C -1,5 C 0,0 C 93 % 93 % 0 % 1025,5 hPa 0,0 l/m 0,6 km/h (0 Bft) SW 225 0 min 0,0 UV-I -2,5 C -1,5 C 0,0 km/h (0 Bft)
17.11.2011 00:14 -1,3 C 9,3 C -0,9 C -1,4 C -1,5 C 0,0 C 93 % 93 % 0 % 1025,5 hPa 0,0 l/m 0,2 km/h (0 Bft) SO 135 0 min 0,0 UV-I -2,3 C -1,5 C 0,0 km/h (0 Bft)
17.11.2011 00:19 -1,3 C 9,3 C -0,9 C -1,3 C -1,4 C 0,0 C 93 % 93 % 0 % 1024,9 hPa 0,0 l/m 0,2 km/h (0 Bft) O-NO 67 0 min 0,0 UV-I -2,3 C -1,4 C 0,0 km/h (0 Bft)
17.11.2011 00:25 -1,3 C 9,3 C -0,9 C -1,3 C -1,4 C 0,0 C 93 % 93 % 0 % 1024,9 hPa 0,0 l/m 0,0 km/h (0 Bft) O-SO 112 0 min 0,0 UV-I -2,3 C -1,4 C 0,0 km/h (0 Bft)
17.11.2011 00:30 -1,3 C 9,3 C -0,9 C -1,3 C -1,4 C 0,0 C 93 % 93 % 0 % 1024,9 hPa 0,0 l/m 0,0 km/h (0 Bft) SW 225 0 min 0,0 UV-I -2,3 C -1,4 C 0,0 km/h (0 Bft)
17.11.2011 00:35 -1,3 C 9,3 C -0,9 C -1,3 C -1,4 C 0,0 C 93 % 93 % 0 % 1024,9 hPa 0,0 l/m 0,2 km/h (0 Bft) S 180 0 min 0,0 UV-I -2,3 C -1,4 C 0,0 km/h (0 Bft)
17.11.2011 00:40 -1,3 C 9,3 C -0,9 C -1,3 C -1,4 C 0,0 C 93 % 93 % 0 % 1024,8 hPa 0,0 l/m 0,6 km/h (0 Bft) S 180 0 min 0,0 UV-I -2,3 C -1,4 C 2,4 km/h (1 Bft)
17.11.2011 00:45 -1,3 C 9,3 C -0,9 C -1,4 C -1,5 C 0,0 C 93 % 93 % 0 % 1024,8 hPa 0,0 l/m 0,8 km/h (0 Bft) S 180 0 min 0,0 UV-I -2,3 C -1,5 C 3,2 km/h (1 Bft)
17.11.2011 00:50 -1,3 C 9,3 C -0,9 C -1,4 C -1,5 C 0,0 C 93 % 93 % 0 % 1024,8 hPa 0,0 l/m 1,6 km/h (1 Bft) W-SW 247 0 min 0,0 UV-I -2,3 C -1,5 C 3,9 km/h (1 Bft)
17.11.2011 00:55 -1,5 C 9,3 C -0,9 C -1,5 C -1,5 C 0,0 C 93 % 93 % 0 % 1024,8 hPa 0,0 l/m 2,1 km/h (1 Bft) W-SW 247 0 min 0,0 UV-I -2,5 C -1,5 C 0,0 km/h (0 Bft)
17.11.2011 01:00 -1,3 C 9,3 C -0,9 C -1,4 C -1,5 C 0,0 C 93 % 93 % 0 % 1024,8 hPa 0,0 l/m 1,3 km/h (1 Bft) W-SW 247 0 min 0,0 UV-I -2,3 C -1,5 C 7,4 km/h (2 Bft)
17.11.2011 01:08 -1,3 C 9,3 C -0,9 C -1,4 C -1,5 C 0,0 C 93 % 93 % 0 % 1024,8 hPa 0,0 l/m 1,6 km/h (1 Bft) N 0 0 min 0,0 UV-I -2,3 C -1,5 C 3,5 km/h (1 Bft)
17.11.2011 01:20 -1,6 C 9,3 C -1,1 C -1,6 C -1,6 C 0,0 C 93 % 93 % 0 % 1025,4 hPa 0,0 l/m 0,6 km/h (0 Bft) SW 225 0 min 0,0 UV-I -2,6 C -1,6 C 0,0 km/h (0 Bft)
17.11.2011 01:25 -1,6 C 9,3 C -1,1 C -1,6 C -1,6 C 0,0 C 93 % 93 % 0 % 1025,4 hPa 0,0 l/m 1,0 km/h (0 Bft) W-SW 247 0 min 0,0 UV-I -2,6 C -1,6 C 5,1 km/h (1 Bft)
17.11.2011 01:30 -1,7 C 9,3 C -1,2 C -1,7 C -1,7 C 0,0 C 93 % 93 % 0 % 1025,4 hPa 0,0 l/m 2,1 km/h (1 Bft) W 270 0 min 0,0 UV-I -2,7 C -1,7 C 2,1 km/h (1 Bft)
17.11.2011 01:35 -1,7 C 9,3 C -1,2 C -1,7 C -1,8 C 0,0 C 93 % 93 % 0 % 1025,4 hPa 0,0 l/m 2,1 km/h (1 Bft) W 270 0 min 0,0 UV-I -2,7 C -1,8 C 0,0 km/h (0 Bft)
17.11.2011 01:40 -1,7 C 9,3 C -1,2 C -1,7 C -1,8 C 0,0 C 93 % 93 % 0 % 1024,9 hPa 0,0 l/m 1,0 km/h (0 Bft) W-NW 292 0 min 0,0 UV-I -2,7 C -1,8 C 4,2 km/h (1 Bft)
17.11.2011 01:45 -1,7 C 9,3 C -1,1 C -1,7 C -1,8 C 0,0 C 93 % 93 % 0 % 1024,9 hPa 0,0 l/m 1,6 km/h (1 Bft) W-SW 247 0 min 0,0 UV-I -2,7 C -1,8 C 3,4 km/h (1 Bft)
17.11.2011 01:50 -1,7 C 9,3 C -1,1 C -1,7 C -1,8 C 0,0 C 93 % 93 % 0 % 1024,9 hPa 0,0 l/m 1,9 km/h (1 Bft) O 90 0 min 0,0 UV-I -2,7 C -1,8 C 0,0 km/h (0 Bft)
17.11.2011 01:55 -1,7 C 9,3 C -1,1 C -1,7 C -1,8 C 0,0 C 93 % 93 % 0 % 1024,9 hPa 0,0 l/m 0,8 km/h (0 Bft) W-SW 247 0 min 0,0 UV-I -2,7 C -1,8 C 2,4 km/h (1 Bft)
17.11.2011 02:00 -1,7 C 9,3 C -1,1 C -1,7 C -1,7 C 0,0 C 93 % 93 % 0 % 1024,5 hPa 0,0 l/m 0,2 km/h (0 Bft) S-SW 202 0 min 0,0 UV-I -2,7 C -1,7 C 0,0 km/h (0 Bft)
17.11.2011 02:11 -1,7 C 9,3 C -1,1 C -1,7 C -1,7 C 0,0 C 93 % 93 % 0 % 1024,5 hPa 0,0 l/m 0,5 km/h (0 Bft) N 0 0 min 0,0 UV-I -2,7 C -1,7 C 0,0 km/h (0 Bft)
17.11.2011 02:20 -1,7 C 9,3 C -1,3 C -1,8 C -1,9 C 0,0 C 93 % 93 % 0 % 1024,2 hPa 0,0 l/m 1,8 km/h (1 Bft) SW 225 0 min 0,0 UV-I -2,7 C -1,9 C 3,1 km/h (1 Bft)
17.11.2011 02:25 -1,7 C 9,3 C -1,3 C -1,8 C -2,0 C 0,0 C 93 % 93 % 0 % 1024,2 hPa 0,0 l/m 1,4 km/h (1 Bft) S-SO 157 0 min 0,0 UV-I -2,7 C -2,0 C 2,3 km/h (1 Bft)
17.11.2011 02:30 -1,7 C 9,3 C -1,3 C -1,8 C -2,0 C 0,0 C 93 % 93 % 0 % 1024,2 hPa 0,0 l/m 1,3 km/h (1 Bft) SO 135 0 min 0,0 UV-I -2,7 C -2,0 C 0,0 km/h (0 Bft)
17.11.2011 02:35 -1,7 C 9,3 C -1,3 C -1,8 C -2,0 C 0,0 C 93 % 93 % 0 % 1024,2 hPa 0,0 l/m 0,6 km/h (0 Bft) S 180 0 min 0,0 UV-I -2,7 C -2,0 C 0,0 km/h (0 Bft)
17.11.2011 02:40 -1,7 C 9,3 C -1,3 C -1,8 C -2,1 C 0,0 C 93 % 93 % 0 % 1024,6 hPa 0,0 l/m 0,2 km/h (0 Bft) NO 45 0 min 0,0 UV-I -2,7 C -2,1 C 0,0 km/h (0 Bft)
17.11.2011 02:45 -1,8 C 9,3 C -1,3 C -1,9 C -2,2 C 0,0 C 93 % 93 % 0 % 1024,6 hPa 0,0 l/m 0,0 km/h (0 Bft) NO 45 0 min 0,0 UV-I -2,8 C -2,2 C 0,0 km/h (0 Bft)
17.11.2011 02:50 -1,7 C 9,3 C -1,3 C -1,9 C -2,4 C 0,0 C 93 % 93 % 0 % 1024,6 hPa 0,0 l/m 0,0 km/h (0 Bft) O-SO 112 0 min 0,0 UV-I -2,7 C -2,4 C 0,0 km/h (0 Bft)
17.11.2011 02:55 -1,9 C 9,3 C -1,5 C -2,1 C -2,6 C 0,0 C 93 % 93 % 0 % 1024,6 hPa 0,0 l/m 0,0 km/h (0 Bft) W-SW 247 0 min 0,0 UV-I -2,9 C -2,6 C 0,0 km/h (0 Bft)
17.11.2011 03:00 -1,9 C 9,3 C -1,6 C -2,2 C -2,8 C 0,0 C 93 % 93 % 0 % 1023,9 hPa 0,0 l/m 0,0 km/h (0 Bft) O 90 0 min 0,0 UV-I -2,9 C -2,8 C 0,0 km/h (0 Bft)
17.11.2011 03:15 -2,1 C 9,2 C -1,7 C -2,5 C -3,3 C 0,0 C 93 % 93 % 0 % 1023,9 hPa 0,0 l/m 0,0 km/h (0 Bft) O-SO 112 0 min 0,0 UV-I -3,1 C -3,3 C 0,0 km/h (0 Bft)
17.11.2011 03:18 -2,1 C 9,2 C -1,7 C -2,5 C -3,3 C 0,0 C 93 % 93 % 0 % 1023,9 hPa 0,0 l/m 0,0 km/h (0 Bft) O-SO 112 0 min 0,0 UV-I -3,1 C -3,3 C 0,0 km/h (0 Bft)
17.11.2011 03:20 -2,1 C 9,2 C -1,9 C -2,6 C -3,5 C 0,0 C 93 % 93 % 0 % 1023,9 hPa 0,0 l/m 0,0 km/h (0 Bft) NW 315 0 min 0,0 UV-I -3,1 C -3,5 C 0,0 km/h (0 Bft)
17.11.2011 03:25 -2,3 C 9,2 C -2,1 C -2,8 C -3,7 C 0,0 C 92 % 93 % 0 % 1023,9 hPa 0,0 l/m 0,0 km/h (0 Bft) SW 225 0 min 0,0 UV-I -3,4 C -3,7 C 0,0 km/h (0 Bft)
17.11.2011 03:30 -2,4 C 9,2 C -2,1 C -2,8 C -3,7 C 0,0 C 92 % 93 % 0 % 1023,9 hPa 0,0 l/m 0,0 km/h (0 Bft) SW 225 0 min 0,0 UV-I -3,5 C -3,7 C 0,0 km/h (0 Bft)
17.11.2011 03:35 -2,5 C 9,2 C -2,1 C -2,9 C -3,8 C 0,0 C 92 % 93 % 0 % 1023,9 hPa 0,0 l/m 0,0 km/h (0 Bft) SW 225 0 min 0,0 UV-I -3,6 C -3,8 C 0,0 km/h (0 Bft)
17.11.2011 03:40 -2,5 C 9,2 C -2,3 C -3,0 C -3,9 C 0,0 C 92 % 93 % 0 % 1024,2 hPa 0,0 l/m 0,0 km/h (0 Bft) SO 135 0 min 0,0 UV-I -3,6 C -3,9 C 0,0 km/h (0 Bft)
17.11.2011 03:45 -2,5 C 9,2 C -2,4 C -3,0 C -4,0 C 0,0 C 92 % 93 % 0 % 1024,2 hPa 0,0 l/m 0,0 km/h (0 Bft) SO 135 0 min 0,0 UV-I -3,6 C -4,0 C 0,0 km/h (0 Bft)
17.11.2011 03:50 -2,5 C 9,2 C -2,3 C -3,0 C -4,0 C 0,0 C 92 % 93 % 0 % 1024,2 hPa 0,0 l/m 0,0 km/h (0 Bft) SO 135 0 min 0,0 UV-I -3,6 C -4,0 C 0,0 km/h (0 Bft)
17.11.2011 03:55 -2,7 C 9,2 C -2,5 C -3,2 C -4,1 C 0,0 C 92 % 92 % 0 % 1024,2 hPa 0,0 l/m 0,0 km/h (0 Bft) W-NW 292 0 min 0,0 UV-I -3,8 C -4,1 C 0,0 km/h (0 Bft)
17.11.2011 04:00 -2,7 C 9,2 C -2,6 C -3,2 C -4,3 C 0,0 C 92 % 92 % 0 % 1024,1 hPa 0,0 l/m 0,0 km/h (0 Bft) W-NW 292 0 min 0,0 UV-I -3,8 C -4,3 C 0,0 km/h (0 Bft)
17.11.2011 04:04 -2,9 C 9,2 C -2,7 C -3,4 C -4,3 C 0,0 C 92 % 92 % 0 % 1024,1 hPa 0,0 l/m 0,0 km/h (0 Bft) W-NW 292 0 min 0,0 UV-I -4,0 C -4,3 C 0,0 km/h (0 Bft)
17.11.2011 04:09 -3,0 C 9,2 C -2,7 C -3,5 C -4,4 C 0,0 C 92 % 92 % 0 % 1024,1 hPa 0,0 l/m 0,0 km/h (0 Bft) W-NW 292 0 min 0,0 UV-I -4,1 C -4,4 C 0,0 km/h (0 Bft)
17.11.2011 04:14 -3,1 C 9,2 C -2,8 C -3,5 C -4,4 C 0,0 C 92 % 92 % 0 % 1024,1 hPa 0,0 l/m 0,0 km/h (0 Bft) W-SW 247 0 min 0,0 UV-I -4,2 C -4,4 C 0,0 km/h (0 Bft)
17.11.2011 04:18 -3,1 C 9,2 C -2,8 C -3,5 C -4,4 C 0,0 C 92 % 92 % 0 % 1024,1 hPa 0,0 l/m 0,0 km/h (0 Bft) W-SW 247 0 min 0,0 UV-I -4,2 C -4,4 C 0,0 km/h (0 Bft)
17.11.2011 04:25 -3,1 C 9,2 C -2,9 C -3,6 C -4,7 C 0,0 C 92 % 92 % 0 % 1024,2 hPa 0,0 l/m 0,0 km/h (0 Bft) W-SW 247 0 min 0,0 UV-I -4,2 C -4,7 C 0,0 km/h (0 Bft)
17.11.2011 04:30 -3,3 C 9,2 C -2,9 C -3,8 C -4,7 C 0,0 C 92 % 92 % 0 % 1024,2 hPa 0,0 l/m 0,0 km/h (0 Bft) W-SW 247 0 min 0,0 UV-I -4,4 C -4,7 C 0,0 km/h (0 Bft)
17.11.2011 04:35 -3,3 C 9,1 C -2,9 C -3,7 C -4,5 C 0,0 C 92 % 92 % 0 % 1024,2 hPa 0,0 l/m 0,0 km/h (0 Bft) S 180 0 min 0,0 UV-I -4,4 C -4,5 C 0,0 km/h (0 Bft)
17.11.2011 04:40 -3,3 C 9,2 C -2,9 C -3,7 C -4,5 C 0,0 C 92 % 92 % 0 % 1024,1 hPa 0,0 l/m 0,2 km/h (0 Bft) S 180 0 min 0,0 UV-I -4,4 C -4,5 C 0,0 km/h (0 Bft)
17.11.2011 04:45 -3,3 C 9,2 C -2,9 C -3,7 C -4,5 C 0,0 C 92 % 92 % 0 % 1024,1 hPa 0,0 l/m 0,0 km/h (0 Bft) S 180 0 min 0,0 UV-I -4,4 C -4,5 C 0,0 km/h (0 Bft)
17.11.2011 04:50 -3,3 C 9,2 C -2,9 C -3,7 C -4,5 C 0,0 C 92 % 93 % 0 % 1024,1 hPa 0,0 l/m 0,2 km/h (0 Bft) SW 225 0 min 0,0 UV-I -4,4 C -4,5 C 0,0 km/h (0 Bft)
17.11.2011 04:55 -3,3 C 9,1 C -3,0 C -3,7 C -4,5 C 0,0 C 92 % 93 % 0 % 1024,1 hPa 0,0 l/m 0,0 km/h (0 Bft) O 90 0 min 0,0 UV-I -4,4 C -4,5 C 0,0 km/h (0 Bft)
17.11.2011 05:00 -3,3 C 9,1 C -2,9 C -3,7 C -4,4 C 0,0 C 92 % 93 % 0 % 1024,1 hPa 0,0 l/m 0,0 km/h (0 Bft) O-NO 67 0 min 0,0 UV-I -4,4 C -4,4 C 0,0 km/h (0 Bft)
17.11.2011 05:05 -3,5 C 9,1 C -3,1 C -3,8 C -4,5 C 0,0 C 92 % 92 % 0 % 1024,1 hPa 0,0 l/m 0,0 km/h (0 Bft) SW 225 0 min 0,0 UV-I -4,6 C -4,5 C 0,0 km/h (0 Bft)
17.11.2011 05:10 -3,5 C 9,1 C -3,2 C -3,9 C -4,6 C 0,0 C 92 % 92 % 0 % 1024,1 hPa 0,0 l/m 0,0 km/h (0 Bft) SW 225 0 min 0,0 UV-I -4,6 C -4,6 C 0,0 km/h (0 Bft)
17.11.2011 05:15 -3,6 C 9,1 C -3,2 C -4,0 C -4,8 C 0,0 C 92 % 93 % 0 % 1024,1 hPa 0,0 l/m 0,0 km/h (0 Bft) SW 225 0 min 0,0 UV-I -4,7 C -4,8 C 0,0 km/h (0 Bft)
17.11.2011 05:20 -3,5 C 9,1 C -3,3 C -4,0 C -4,9 C 0,0 C 92 % 93 % 0 % 1024,1 hPa 0,0 l/m 0,0 km/h (0 Bft) SW 225 0 min 0,0 UV-I -4,6 C -4,9 C 0,0 km/h (0 Bft)
17.11.2011 05:25 -3,7 C 9,1 C -3,3 C -4,1 C -5,0 C 0,0 C 92 % 93 % 0 % 1024,1 hPa 0,0 l/m 0,0 km/h (0 Bft) SW 225 0 min 0,0 UV-I -4,8 C -5,0 C 0,0 km/h (0 Bft)
17.11.2011 05:30 -3,8 C 9,1 C -3,4 C -4,2 C -5,0 C 0,0 C 92 % 92 % 0 % 1024,1 hPa 0,0 l/m 0,0 km/h (0 Bft) O-NO 67 0 min 0,0 UV-I -4,9 C -5,0 C 0,0 km/h (0 Bft)
17.11.2011 05:35 -3,7 C 9,1 C -3,5 C -4,1 C -5,0 C 0,0 C 92 % 92 % 0 % 1024,1 hPa 0,0 l/m 0,0 km/h (0 Bft) S-SW 202 0 min 0,0 UV-I -4,8 C -5,0 C 0,0 km/h (0 Bft)
17.11.2011 05:40 -3,7 C 9,1 C -3,5 C -4,1 C -5,0 C 0,0 C 92 % 93 % 0 % 1024,2 hPa 0,0 l/m 0,0 km/h (0 Bft) S-SW 202 0 min 0,0 UV-I -4,8 C -5,0 C 0,0 km/h (0 Bft)
17.11.2011 05:45 -3,9 C 9,1 C -3,5 C -4,3 C -5,0 C 0,0 C 92 % 92 % 0 % 1024,2 hPa 0,0 l/m 0,0 km/h (0 Bft) SW 225 0 min 0,0 UV-I -5,0 C -5,0 C 0,0 km/h (0 Bft)
17.11.2011 05:50 -3,9 C 9,1 C -3,3 C -4,3 C -5,0 C 0,0 C 92 % 93 % 0 % 1024,2 hPa 0,0 l/m 0,0 km/h (0 Bft) SO 135 0 min 0,0 UV-I -5,0 C -5,0 C 0,0 km/h (0 Bft)
17.11.2011 05:55 -3,9 C 9,1 C -3,4 C -4,2 C -4,8 C 0,0 C 92 % 93 % 0 % 1024,2 hPa 0,0 l/m 0,0 km/h (0 Bft) S-SW 202 0 min 0,0 UV-I -5,0 C -4,8 C 0,0 km/h (0 Bft)
17.11.2011 06:00 -3,7 C 9,1 C -3,3 C -4,0 C -4,5 C 0,0 C 92 % 93 % 0 % 1024,1 hPa 0,0 l/m 0,0 km/h (0 Bft) SW 225 0 min 0,0 UV-I -4,8 C -4,5 C 0,0 km/h (0 Bft)
17.11.2011 06:15 -3,7 C 9,1 C -3,3 C -3,9 C -4,4 C 0,0 C 92 % 93 % 0 % 1024,1 hPa 0,0 l/m 0,0 km/h (0 Bft) SW 225 0 min 0,0 UV-I -4,8 C -4,4 C 0,0 km/h (0 Bft)
17.11.2011 06:18 -3,7 C 9,1 C -3,3 C -3,9 C -4,4 C 0,0 C 92 % 93 % 0 % 1024,1 hPa 0,0 l/m 0,0 km/h (0 Bft) SW 225 0 min 0,0 UV-I -4,8 C -4,4 C 0,0 km/h (0 Bft)
17.11.2011 06:20 -3,7 C 9,1 C -3,3 C -3,9 C -4,3 C 0,0 C 92 % 93 % 0 % 1023,9 hPa 0,0 l/m 0,0 km/h (0 Bft) S 180 0 min 0,0 UV-I -4,8 C -4,3 C 0,0 km/h (0 Bft)
17.11.2011 06:25 -3,7 C 9,1 C -3,2 C -3,9 C -4,3 C 0,0 C 92 % 93 % 0 % 1023,9 hPa 0,0 l/m 0,0 km/h (0 Bft) S 180 0 min 0,0 UV-I -4,8 C -4,3 C 0,0 km/h (0 Bft)
17.11.2011 06:30 -3,7 C 9,1 C -3,1 C -3,9 C -4,2 C 0,0 C 92 % 93 % 0 % 1023,9 hPa 0,0 l/m 0,0 km/h (0 Bft) SW 225 0 min 0,0 UV-I -4,8 C -4,2 C 0,0 km/h (0 Bft)
17.11.2011 06:35 -3,7 C 9,1 C -3,1 C -3,8 C -4,1 C 0,0 C 92 % 93 % 0 % 1023,9 hPa 0,0 l/m 0,0 km/h (0 Bft) SW 225 0 min 0,0 UV-I -4,8 C -4,1 C 0,0 km/h (0 Bft)
17.11.2011 06:40 -3,7 C 9,1 C -2,9 C -3,8 C -4,0 C 0,0 C 92 % 93 % 0 % 1024,1 hPa 0,0 l/m 0,0 km/h (0 Bft) SW 225 0 min 0,0 UV-I -4,8 C -4,0 C 0,0 km/h (0 Bft)
17.11.2011 06:45 -3,7 C 9,1 C -2,9 C -3,8 C -4,1 C 0,0 C 92 % 93 % 0 % 1024,1 hPa 0,0 l/m 0,0 km/h (0 Bft) S 180 0 min 0,0 UV-I -4,8 C -4,1 C 0,0 km/h (0 Bft)
17.11.2011 06:50 -3,7 C 9,1 C -3,1 C -3,9 C -4,2 C 0,0 C 92 % 93 % 0 % 1024,1 hPa 0,0 l/m 0,0 km/h (0 Bft) S 180 0 min 0,0 UV-I -4,8 C -4,2 C 0,0 km/h (0 Bft)
17.11.2011 06:55 -3,7 C 9,1 C -3,1 C -3,9 C -4,2 C 0,0 C 92 % 93 % 0 % 1024,1 hPa 0,0 l/m 0,0 km/h (0 Bft) W-SW 247 0 min 0,0 UV-I -4,8 C -4,2 C 0,0 km/h (0 Bft)
17.11.2011 07:00 -3,7 C 9,1 C -3,1 C -3,9 C -4,3 C 0,0 C 92 % 93 % 0 % 1024,1 hPa 0,0 l/m 0,0 km/h (0 Bft) SW 225 0 min 0,0 UV-I -4,8 C -4,3 C 0,0 km/h (0 Bft)
17.11.2011 07:04 -3,7 C 9,1 C -2,9 C -3,9 C -4,4 C 0,0 C 92 % 93 % 0 % 1024,1 hPa 0,0 l/m 0,0 km/h (0 Bft) W-SW 247 0 min 0,0 UV-I -4,8 C -4,4 C 0,0 km/h (0 Bft)
17.11.2011 07:09 -3,7 C 9,0 C -3,1 C -3,9 C -4,4 C 0,0 C 92 % 93 % 0 % 1024,1 hPa 0,0 l/m 0,0 km/h (0 Bft) SW 225 0 min 0,0 UV-I -4,8 C -4,4 C 0,0 km/h (0 Bft)
17.11.2011 07:14 -3,7 C 9,0 C -3,1 C -4,0 C -4,5 C 0,0 C 92 % 93 % 0 % 1024,1 hPa 0,0 l/m 0,0 km/h (0 Bft) S 180 0 min 0,0 UV-I -4,8 C -4,5 C 0,0 km/h (0 Bft)
17.11.2011 07:18 -3,7 C 9,0 C -3,1 C -4,0 C -4,5 C 0,0 C 92 % 93 % 0 % 1024,1 hPa 0,0 l/m 0,0 km/h (0 Bft) S 180 0 min 0,0 UV-I -4,8 C -4,5 C 0,0 km/h (0 Bft)
17.11.2011 07:25 -3,8 C 9,0 C -3,1 C -4,0 C -4,4 C 0,0 C 92 % 93 % 0 % 1024,2 hPa 0,0 l/m 0,0 km/h (0 Bft) S-SO 157 0 min 0,0 UV-I -4,9 C -4,4 C 0,0 km/h (0 Bft)
17.11.2011 07:30 -3,8 C 9,0 C -3,3 C -4,0 C -4,5 C 0,0 C 92 % 93 % 0 % 1024,2 hPa 0,0 l/m 0,0 km/h (0 Bft) S-SO 157 0 min 0,0 UV-I -4,9 C -4,5 C 0,0 km/h (0 Bft)
17.11.2011 07:35 -3,7 C 9,0 C -3,3 C -4,0 C -4,5 C 0,0 C 92 % 93 % 0 % 1024,2 hPa 0,0 l/m 0,0 km/h (0 Bft) S-SO 157 0 min 0,0 UV-I -4,8 C -4,5 C 0,0 km/h (0 Bft)
17.11.2011 07:40 -3,8 C 9,0 C -3,3 C -4,0 C -4,5 C 0,0 C 92 % 93 % 0 % 1024,2 hPa 0,0 l/m 0,0 km/h (0 Bft) S 180 0 min 0,0 UV-I -4,9 C -4,5 C 0,0 km/h (0 Bft)
17.11.2011 07:45 -3,8 C 9,0 C -3,3 C -4,0 C -4,4 C 0,0 C 92 % 93 % 0 % 1024,2 hPa 0,0 l/m 0,0 km/h (0 Bft) W-SW 247 0 min 0,0 UV-I -4,9 C -4,4 C 0,0 km/h (0 Bft)
17.11.2011 07:50 -3,8 C 9,0 C -3,1 C -4,0 C -4,4 C 0,0 C 92 % 93 % 0 % 1024,2 hPa 0,0 l/m 0,0 km/h (0 Bft) W-SW 247 0 min 0,0 UV-I -4,9 C -4,4 C 0,0 km/h (0 Bft)
17.11.2011 07:55 -3,8 C 9,0 C -3,2 C -4,0 C -4,3 C 0,0 C 92 % 93 % 0 % 1024,2 hPa 0,0 l/m 0,0 km/h (0 Bft) W-SW 247 0 min 0,0 UV-I -4,9 C -4,3 C 0,0 km/h (0 Bft)
17.11.2011 08:00 -3,8 C 9,0 C -3,2 C -3,9 C -4,2 C 0,0 C 92 % 93 % 0 % 1024,4 hPa 0,0 l/m 0,0 km/h (0 Bft) W-SW 247 0 min 0,0 UV-I -4,9 C -4,2 C 0,0 km/h (0 Bft)
17.11.2011 08:04 -3,7 C 9,0 C -3,1 C -3,8 C -4,0 C 0,0 C 92 % 93 % 0 % 1024,4 hPa 0,0 l/m 0,0 km/h (0 Bft) W-SW 247 0 min 0,0 UV-I -4,8 C -4,0 C 0,0 km/h (0 Bft)
17.11.2011 08:09 -3,7 C 9,0 C -2,9 C -3,7 C -3,8 C 0,0 C 92 % 93 % 0 % 1024,4 hPa 0,0 l/m 0,0 km/h (0 Bft) W-SW 247 0 min 0,0 UV-I -4,8 C -3,8 C 0,0 km/h (0 Bft)
17.11.2011 08:14 -3,7 C 9,0 C -2,9 C -3,6 C -3,6 C 0,1 C 92 % 93 % 3 % 1024,4 hPa 0,0 l/m 0,0 km/h (0 Bft) SO 135 0 min 0,0 UV-I -4,8 C -3,6 C 0,0 km/h (0 Bft)
17.11.2011 08:18 -3,7 C 9,0 C -2,9 C -3,6 C -3,6 C 0,1 C 92 % 93 % 3 % 1024,4 hPa 0,0 l/m 0,0 km/h (0 Bft) SO 135 0 min 0,0 UV-I -4,8 C -3,6 C 0,0 km/h (0 Bft)
17.11.2011 08:25 -3,5 C 9,0 C -2,5 C -3,2 C -3,2 C 0,3 C 92 % 93 % 8 % 1024,4 hPa 0,0 l/m 0,0 km/h (0 Bft) O-SO 112 0 min 0,0 UV-I -4,6 C -3,2 C 0,0 km/h (0 Bft)
17.11.2011 08:30 -3,3 C 9,0 C -2,5 C -3,0 C -3,0 C 0,3 C 93 % 93 % 8 % 1024,4 hPa 0,0 l/m 0,0 km/h (0 Bft) W-SW 247 0 min 0,0 UV-I -4,3 C -3,0 C 0,0 km/h (0 Bft)
17.11.2011 08:35 -3,1 C 9,0 C -2,4 C -2,8 C -2,8 C 0,3 C 93 % 93 % 8 % 1024,4 hPa 0,0 l/m 0,2 km/h (0 Bft) W-SW 247 0 min 0,0 UV-I -4,1 C -2,8 C 2,1 km/h (1 Bft)
17.11.2011 08:40 -3,2 C 9,0 C -2,4 C -2,8 C -2,8 C 0,4 C 93 % 93 % 11 % 1024,2 hPa 0,0 l/m 0,6 km/h (0 Bft) S-SW 202 0 min 0,0 UV-I -4,2 C -2,8 C 0,0 km/h (0 Bft)
17.11.2011 08:45 -2,9 C 9,0 C -2,2 C -2,6 C -2,6 C 0,3 C 93 % 93 % 8 % 1024,2 hPa 0,0 l/m 1,3 km/h (1 Bft) S 180 0 min 0,0 UV-I -3,9 C -2,6 C 1,9 km/h (1 Bft)
17.11.2011 08:50 -2,7 C 8,9 C -2,0 C -2,3 C -2,3 C 0,4 C 93 % 93 % 11 % 1024,2 hPa 0,0 l/m 1,1 km/h (1 Bft) NO 45 0 min 0,0 UV-I -3,7 C -2,3 C 0,0 km/h (0 Bft)
17.11.2011 08:55 -2,6 C 8,9 C -1,7 C -2,1 C -2,1 C 0,5 C 93 % 93 % 13 % 1024,2 hPa 0,0 l/m 1,0 km/h (0 Bft) SW 225 0 min 0,0 UV-I -3,6 C -2,1 C 0,0 km/h (0 Bft)
17.11.2011 09:00 -2,3 C 8,8 C -1,7 C -2,0 C -2,0 C 0,3 C 93 % 93 % 8 % 1024,2 hPa 0,0 l/m 1,6 km/h (1 Bft) SW 225 0 min 0,0 UV-I -3,3 C -2,0 C 3,4 km/h (1 Bft)
17.11.2011 09:10 -1,9 C 8,7 C -1,3 C -1,9 C -1,9 C 0,0 C 93 % 93 % 0 % 1024,2 hPa 0,0 l/m 2,6 km/h (1 Bft) N 0 0 min 0,0 UV-I -2,9 C -1,9 C 5,8 km/h (2 Bft)
17.11.2011 09:20 -1,7 C 8,7 C -0,9 C -1,8 C -1,9 C 0,0 C 93 % 93 % 0 % 1024,2 hPa 0,0 l/m 2,9 km/h (1 Bft) SW 225 0 min 0,0 UV-I -2,7 C -1,9 C 7,9 km/h (2 Bft)
17.11.2011 09:25 -1,3 C 8,6 C -0,8 C -1,5 C -1,9 C 0,0 C 93 % 93 % 0 % 1024,2 hPa 0,0 l/m 3,4 km/h (1 Bft) W-SW 247 0 min 0,0 UV-I -2,3 C -1,9 C 3,9 km/h (1 Bft)
17.11.2011 09:30 -1,2 C 8,6 C -0,5 C -1,5 C -2,1 C 0,0 C 93 % 93 % 0 % 1024,2 hPa 0,0 l/m 4,0 km/h (1 Bft) SW 225 0 min 0,0 UV-I -2,2 C -2,1 C 9,7 km/h (2 Bft)
17.11.2011 09:35 -0,9 C 8,6 C -0,4 C -1,1 C -1,5 C 0,0 C 93 % 93 % 0 % 1024,2 hPa 0,0 l/m 3,4 km/h (1 Bft) O 90 0 min 0,0 UV-I -1,9 C -1,5 C 5,0 km/h (1 Bft)
17.11.2011 09:40 -0,8 C 8,6 C -0,3 C -0,8 C -0,8 C 0,0 C 93 % 93 % 0 % 1024,7 hPa 0,0 l/m 2,7 km/h (1 Bft) S-SO 157 0 min 0,0 UV-I -1,8 C -0,8 C 1,6 km/h (1 Bft)
17.11.2011 09:45 -0,5 C 8,6 C -0,1 C -0,6 C -0,9 C 0,0 C 93 % 93 % 0 % 1024,7 hPa 0,0 l/m 3,2 km/h (1 Bft) NW 315 0 min 0,0 UV-I -1,5 C -0,9 C 5,0 km/h (1 Bft)
17.11.2011 09:50 -0,5 C 8,6 C 0,0 C -0,4 C -0,4 C 0,1 C 93 % 93 % 3 % 1024,7 hPa 0,0 l/m 2,6 km/h (1 Bft) S-SW 202 0 min 0,0 UV-I -1,5 C -0,4 C 3,9 km/h (1 Bft)
17.11.2011 09:55 -0,4 C 8,6 C 0,3 C 0,0 C 0,0 C 0,4 C 93 % 93 % 11 % 1024,7 hPa 0,0 l/m 2,3 km/h (1 Bft) S 180 0 min 0,0 UV-I -1,4 C 0,0 C 8,0 km/h (2 Bft)
17.11.2011 10:00 -0,1 C 8,6 C 0,3 C -0,2 C -0,4 C 0,0 C 93 % 92 % 0 % 1024,5 hPa 0,0 l/m 2,9 km/h (1 Bft) SW 225 0 min 0,0 UV-I -1,1 C -0,4 C 4,5 km/h (1 Bft)
17.11.2011 10:10 0,0 C 8,6 C 0,5 C 0,0 C -0,1 C 0,0 C 93 % 92 % 0 % 1024,5 hPa 0,0 l/m 2,6 km/h (1 Bft) N 0 0 min 0,0 UV-I -1,0 C -0,1 C 1,9 km/h (1 Bft)
17.11.2011 10:20 0,3 C 8,5 C 0,8 C -0,1 C -0,8 C 0,0 C 91 % 91 % 0 % 1024,6 hPa 0,0 l/m 4,3 km/h (1 Bft) W-SW 247 0 min 0,0 UV-I -1,0 C -0,8 C 13,7 km/h (3 Bft)
17.11.2011 10:25 0,5 C 8,5 C 0,9 C -0,1 C -1,3 C 0,0 C 90 % 92 % 0 % 1024,6 hPa 0,0 l/m 6,1 km/h (2 Bft) S 180 0 min 0,0 UV-I -0,9 C -3,6 C 6,8 km/h (2 Bft)
17.11.2011 10:30 0,7 C 8,5 C 1,0 C 0,1 C -1,1 C 0,0 C 90 % 91 % 0 % 1024,6 hPa 0,0 l/m 6,0 km/h (2 Bft) S 180 0 min 0,0 UV-I -0,7 C -3,3 C 13,7 km/h (3 Bft)
17.11.2011 10:35 0,7 C 8,4 C 1,1 C 0,2 C -0,8 C 0,0 C 89 % 91 % 0 % 1024,6 hPa 0,0 l/m 6,1 km/h (2 Bft) SW 225 0 min 0,0 UV-I -0,9 C -3,0 C 10,6 km/h (2 Bft)
17.11.2011 10:40 0,9 C 8,4 C 1,2 C 0,5 C -0,3 C 0,0 C 89 % 90 % 0 % 1024,5 hPa 0,0 l/m 5,5 km/h (1 Bft) W-SW 247 0 min 0,0 UV-I -0,7 C -2,2 C 3,9 km/h (1 Bft)
17.11.2011 10:45 0,9 C 8,4 C 1,3 C 0,8 C 0,5 C 0,0 C 88 % 90 % 0 % 1024,5 hPa 0,0 l/m 4,7 km/h (1 Bft) W 270 0 min 0,0 UV-I -0,9 C -0,9 C 3,9 km/h (1 Bft)
17.11.2011 10:50 1,1 C 8,4 C 1,5 C 1,1 C 1,0 C 0,0 C 89 % 90 % 0 % 1024,5 hPa 0,0 l/m 4,0 km/h (1 Bft) W-SW 247 0 min 0,0 UV-I -0,5 C 1,0 C 17,5 km/h (3 Bft)
17.11.2011 10:55 1,1 C 8,4 C 1,6 C 1,6 C 1,6 C 0,5 C 88 % 90 % 13 % 1024,5 hPa 0,0 l/m 3,2 km/h (1 Bft) S 180 0 min 0,0 UV-I -0,7 C 1,6 C 6,0 km/h (2 Bft)
17.11.2011 11:00 1,2 C 8,4 C 1,6 C 1,7 C 1,7 C 0,5 C 88 % 90 % 13 % 1024,6 hPa 0,0 l/m 3,2 km/h (1 Bft) S-SO 157 0 min 0,0 UV-I -0,6 C 1,7 C 3,5 km/h (1 Bft)
17.11.2011 11:15 1,5 C 8,4 C 1,8 C 1,9 C 1,9 C 0,4 C 87 % 88 % 11 % 1024,6 hPa 0,0 l/m 3,7 km/h (1 Bft) O-NO 67 0 min 0,0 UV-I -0,4 C 1,9 C 3,4 km/h (1 Bft)
17.11.2011 11:16 1,5 C 8,4 C 1,8 C 1,9 C 1,9 C 0,4 C 87 % 88 % 11 % 1024,6 hPa 0,0 l/m 3,7 km/h (1 Bft) O-NO 67 0 min 0,0 UV-I -0,4 C 1,9 C 3,4 km/h (1 Bft)
17.11.2011 11:20 1,5 C 8,4 C 1,9 C 1,7 C 1,7 C 0,2 C 86 % 88 % 5 % 1025,2 hPa 0,0 l/m 4,0 km/h (1 Bft) NW 315 0 min 0,0 UV-I -0,6 C 1,7 C 6,4 km/h (2 Bft)
17.11.2011 11:25 1,6 C 8,4 C 1,9 C 1,5 C 1,3 C 0,0 C 86 % 87 % 0 % 1025,2 hPa 0,0 l/m 4,8 km/h (1 Bft) S 180 0 min 0,0 UV-I -0,5 C -0,0 C 11,1 km/h (2 Bft)
17.11.2011 11:30 1,6 C 8,4 C 1,9 C 1,5 C 1,3 C 0,0 C 86 % 87 % 0 % 1025,2 hPa 0,0 l/m 4,8 km/h (1 Bft) W-SW 247 0 min 0,0 UV-I -0,5 C -0,0 C 9,2 km/h (2 Bft)
17.11.2011 11:35 1,6 C 8,4 C 2,0 C 1,7 C 1,7 C 0,1 C 86 % 87 % 3 % 1025,2 hPa 0,0 l/m 4,3 km/h (1 Bft) S-SO 157 0 min 0,0 UV-I -0,5 C 1,7 C 7,4 km/h (2 Bft)
17.11.2011 11:40 1,7 C 8,4 C 2,0 C 2,4 C 2,4 C 0,7 C 86 % 86 % 18 % 1024,8 hPa 0,0 l/m 3,2 km/h (1 Bft) S-SO 157 0 min 0,0 UV-I -0,4 C 2,4 C 3,5 km/h (1 Bft)
17.11.2011 11:45 1,9 C 8,4 C 2,3 C 2,4 C 2,4 C 0,5 C 85 % 86 % 13 % 1024,8 hPa 0,0 l/m 3,5 km/h (1 Bft) S 180 0 min 0,0 UV-I -0,3 C 2,4 C 6,8 km/h (2 Bft)
17.11.2011 11:50 1,8 C 8,4 C 2,2 C 2,6 C 2,6 C 0,8 C 85 % 86 % 21 % 1024,8 hPa 0,0 l/m 3,4 km/h (1 Bft) W 270 0 min 0,0 UV-I -0,4 C 2,6 C 0,0 km/h (0 Bft)
17.11.2011 11:55 1,9 C 8,4 C 2,3 C 3,0 C 3,0 C 1,1 C 85 % 86 % 29 % 1024,8 hPa 0,0 l/m 2,9 km/h (1 Bft) SO 135 0 min 0,0 UV-I -0,3 C 3,0 C 3,7 km/h (1 Bft)
17.11.2011 12:00 2,0 C 8,4 C 2,3 C 2,9 C 2,9 C 0,9 C 85 % 86 % 24 % 1024,4 hPa 0,0 l/m 3,1 km/h (1 Bft) W 270 0 min 0,0 UV-I -0,3 C 2,9 C 2,7 km/h (1 Bft)
17.11.2011 12:04 2,0 C 8,4 C 2,3 C 2,5 C 2,5 C 0,5 C 85 % 86 % 13 % 1024,4 hPa 0,0 l/m 4,0 km/h (1 Bft) NW 315 0 min 0,0 UV-I -0,3 C 2,5 C 3,2 km/h (1 Bft)
17.11.2011 12:09 2,1 C 8,4 C 2,4 C 2,7 C 2,7 C 0,6 C 84 % 86 % 16 % 1024,4 hPa 0,0 l/m 3,9 km/h (1 Bft) W-SW 247 0 min 0,0 UV-I -0,3 C 2,7 C 4,3 km/h (1 Bft)
17.11.2011 12:14 2,3 C 8,4 C 2,7 C 3,4 C 3,4 C 1,1 C 84 % 85 % 29 % 1024,4 hPa 0,0 l/m 2,9 km/h (1 Bft) S 180 0 min 0,0 UV-I -0,1 C 3,4 C 3,9 km/h (1 Bft)
17.11.2011 12:18 2,3 C 8,4 C 2,7 C 3,4 C 3,4 C 1,1 C 84 % 85 % 29 % 1024,4 hPa 0,0 l/m 2,9 km/h (1 Bft) S 180 0 min 0,0 UV-I -0,1 C 3,4 C 3,9 km/h (1 Bft)
17.11.2011 12:25 2,3 C 8,4 C 2,7 C 2,5 C 2,5 C 0,2 C 84 % 85 % 5 % 1024,6 hPa 0,0 l/m 5,0 km/h (1 Bft) W-SW 247 0 min 0,0 UV-I -0,1 C 1,2 C 11,1 km/h (2 Bft)
17.11.2011 12:30 2,4 C 8,4 C 2,7 C 2,5 C 2,5 C 0,1 C 83 % 85 % 3 % 1024,6 hPa 0,0 l/m 5,0 km/h (1 Bft) S 180 0 min 0,0 UV-I -0,2 C 1,2 C 9,8 km/h (2 Bft)
17.11.2011 12:35 2,4 C 8,4 C 2,8 C 2,2 C 1,8 C 0,0 C 83 % 85 % 0 % 1024,6 hPa 0,0 l/m 6,4 km/h (2 Bft) SW 225 0 min 0,0 UV-I -0,2 C -0,1 C 9,5 km/h (2 Bft)
17.11.2011 12:40 2,4 C 8,4 C 2,8 C 2,2 C 1,8 C 0,0 C 83 % 85 % 0 % 1024,6 hPa 0,0 l/m 6,6 km/h (2 Bft) W-SW 247 0 min 0,0 UV-I -0,2 C -0,2 C 9,3 km/h (2 Bft)
17.11.2011 12:45 2,5 C 8,4 C 2,8 C 2,3 C 1,8 C 0,0 C 83 % 84 % 0 % 1024,6 hPa 0,0 l/m 6,6 km/h (2 Bft) O-NO 67 0 min 0,0 UV-I -0,1 C -0,2 C 6,1 km/h (2 Bft)
17.11.2011 12:50 2,5 C 8,4 C 2,8 C 2,4 C 2,1 C 0,0 C 83 % 84 % 0 % 1024,6 hPa 0,0 l/m 5,5 km/h (1 Bft) S 180 0 min 0,0 UV-I -0,1 C 0,6 C 3,7 km/h (1 Bft)
17.11.2011 12:55 2,7 C 8,5 C 2,9 C 3,3 C 3,3 C 0,6 C 83 % 85 % 16 % 1024,6 hPa 0,0 l/m 3,4 km/h (1 Bft) S-SW 202 0 min 0,0 UV-I 0,1 C 3,3 C 5,0 km/h (1 Bft)
17.11.2011 13:00 2,6 C 8,5 C 2,9 C 3,4 C 3,4 C 0,8 C 83 % 85 % 21 % 1024,9 hPa 0,0 l/m 3,2 km/h (1 Bft) W 270 0 min 0,0 UV-I 0,0 C 3,4 C 7,7 km/h (2 Bft)
17.11.2011 13:04 2,7 C 8,5 C 2,9 C 3,1 C 3,1 C 0,4 C 83 % 84 % 11 % 1024,9 hPa 0,0 l/m 3,9 km/h (1 Bft) SW 225 0 min 0,0 UV-I 0,1 C 3,1 C 7,7 km/h (2 Bft)
17.11.2011 13:09 2,7 C 8,5 C 3,1 C 3,2 C 3,2 C 0,5 C 83 % 85 % 13 % 1024,9 hPa 0,0 l/m 3,9 km/h (1 Bft) W-SW 247 0 min 0,0 UV-I 0,1 C 3,2 C 5,1 km/h (1 Bft)
17.11.2011 13:14 2,9 C 8,5 C 3,1 C 3,2 C 3,2 C 0,3 C 83 % 85 % 8 % 1024,9 hPa 0,0 l/m 3,7 km/h (1 Bft) S-SW 202 0 min 0,0 UV-I 0,3 C 3,2 C 4,8 km/h (1 Bft)
17.11.2011 13:18 2,9 C 8,5 C 3,1 C 3,2 C 3,2 C 0,3 C 83 % 85 % 8 % 1024,9 hPa 0,0 l/m 3,7 km/h (1 Bft) S-SW 202 0 min 0,0 UV-I 0,3 C 3,2 C 4,8 km/h (1 Bft)
17.11.2011 13:25 2,8 C 8,5 C 3,1 C 3,2 C 3,2 C 0,4 C 82 % 85 % 11 % 1024,7 hPa 0,0 l/m 3,9 km/h (1 Bft) S-SO 157 0 min 0,0 UV-I 0,0 C 3,2 C 3,4 km/h (1 Bft)
17.11.2011 13:30 2,8 C 8,5 C 3,1 C 3,2 C 3,2 C 0,4 C 82 % 85 % 11 % 1024,7 hPa 0,0 l/m 3,9 km/h (1 Bft) W-SW 247 0 min 0,0 UV-I 0,0 C 3,2 C 4,5 km/h (1 Bft)
17.11.2011 13:35 2,9 C 8,5 C 3,1 C 3,3 C 3,3 C 0,4 C 82 % 85 % 11 % 1024,7 hPa 0,0 l/m 3,5 km/h (1 Bft) SW 225 0 min 0,0 UV-I 0,1 C 3,3 C 4,5 km/h (1 Bft)
17.11.2011 13:40 2,9 C 8,5 C 3,1 C 3,4 C 3,4 C 0,5 C 83 % 85 % 13 % 1024,4 hPa 0,0 l/m 3,4 km/h (1 Bft) S 180 0 min 0,0 UV-I 0,3 C 3,4 C 8,7 km/h (2 Bft)
17.11.2011 13:45 2,9 C 8,5 C 3,2 C 2,7 C 2,4 C 0,0 C 82 % 84 % 0 % 1024,4 hPa 0,0 l/m 5,6 km/h (1 Bft) W-SW 247 0 min 0,0 UV-I 0,1 C 0,9 C 8,7 km/h (2 Bft)
17.11.2011 13:50 3,0 C 8,5 C 3,3 C 2,7 C 2,1 C 0,0 C 82 % 84 % 0 % 1024,4 hPa 0,0 l/m 6,4 km/h (2 Bft) W-SW 247 0 min 0,0 UV-I 0,2 C 0,2 C 5,8 km/h (2 Bft)
17.11.2011 13:55 3,1 C 8,5 C 3,2 C 2,8 C 2,2 C 0,0 C 82 % 84 % 0 % 1024,4 hPa 0,0 l/m 6,1 km/h (2 Bft) O 90 0 min 0,0 UV-I 0,3 C 0,5 C 9,8 km/h (2 Bft)
17.11.2011 14:00 3,0 C 8,5 C 3,3 C 2,8 C 2,4 C 0,0 C 81 % 84 % 0 % 1024,7 hPa 0,0 l/m 5,6 km/h (1 Bft) NW 315 0 min 0,0 UV-I 0,1 C 0,9 C 0,0 km/h (0 Bft)
17.11.2011 14:04 3,1 C 8,5 C 3,2 C 2,9 C 2,6 C 0,0 C 81 % 84 % 0 % 1024,7 hPa 0,0 l/m 5,1 km/h (1 Bft) W-SW 247 0 min 0,0 UV-I 0,2 C 1,3 C 10,5 km/h (2 Bft)
17.11.2011 14:09 3,1 C 8,5 C 3,2 C 3,0 C 2,9 C 0,0 C 81 % 83 % 0 % 1024,7 hPa 0,0 l/m 4,3 km/h (1 Bft) S-SW 202 0 min 0,0 UV-I 0,2 C 2,9 C 4,2 km/h (1 Bft)
17.11.2011 14:14 3,1 C 8,5 C 3,3 C 3,0 C 2,7 C 0,0 C 81 % 83 % 0 % 1024,7 hPa 0,0 l/m 4,8 km/h (1 Bft) S-SW 202 0 min 0,0 UV-I 0,2 C 1,6 C 9,0 km/h (2 Bft)
17.11.2011 14:18 3,1 C 8,5 C 3,3 C 3,0 C 2,7 C 0,0 C 81 % 83 % 0 % 1024,7 hPa 0,0 l/m 4,8 km/h (1 Bft) S-SW 202 0 min 0,0 UV-I 0,2 C 1,6 C 9,0 km/h (2 Bft)
17.11.2011 14:25 3,1 C 8,5 C 3,2 C 3,0 C 2,7 C 0,0 C 80 % 83 % 0 % 1024,3 hPa 0,0 l/m 4,8 km/h (1 Bft) W-SW 247 0 min 0,0 UV-I -0,0 C 1,6 C 6,9 km/h (2 Bft)
17.11.2011 14:30 3,2 C 8,5 C 3,3 C 3,0 C 2,5 C 0,0 C 80 % 83 % 0 % 1024,3 hPa 0,0 l/m 5,3 km/h (1 Bft) W-SW 247 0 min 0,0 UV-I 0,1 C 1,1 C 6,4 km/h (2 Bft)
17.11.2011 14:35 3,2 C 8,5 C 3,3 C 3,1 C 2,8 C 0,0 C 81 % 83 % 0 % 1024,3 hPa 0,0 l/m 4,7 km/h (1 Bft) W-NW 292 0 min 0,0 UV-I 0,3 C 1,7 C 1,9 km/h (1 Bft)
17.11.2011 14:40 3,2 C 8,5 C 3,3 C 3,2 C 3,2 C 0,0 C 81 % 83 % 0 % 1024,8 hPa 0,0 l/m 3,7 km/h (1 Bft) S-SO 157 0 min 0,0 UV-I 0,3 C 3,2 C 3,4 km/h (1 Bft)
17.11.2011 14:45 3,2 C 8,6 C 3,3 C 3,1 C 2,8 C 0,0 C 80 % 83 % 0 % 1024,8 hPa 0,0 l/m 4,5 km/h (1 Bft) NW 315 0 min 0,0 UV-I 0,1 C 2,8 C 3,9 km/h (1 Bft)
17.11.2011 14:50 3,3 C 8,6 C 3,3 C 3,0 C 2,4 C 0,0 C 80 % 83 % 0 % 1024,8 hPa 0,0 l/m 5,6 km/h (1 Bft) SW 225 0 min 0,0 UV-I 0,2 C 0,9 C 8,7 km/h (2 Bft)
17.11.2011 14:55 3,2 C 8,6 C 3,4 C 2,9 C 2,3 C 0,0 C 80 % 83 % 0 % 1024,8 hPa 0,0 l/m 6,0 km/h (2 Bft) W-SW 247 0 min 0,0 UV-I 0,1 C 0,6 C 6,8 km/h (2 Bft)
17.11.2011 15:00 3,2 C 8,6 C 3,3 C 2,9 C 2,2 C 0,0 C 80 % 83 % 0 % 1024,2 hPa 0,0 l/m 6,3 km/h (2 Bft) W 270 0 min 0,0 UV-I 0,1 C 0,4 C 10,0 km/h (2 Bft)
17.11.2011 15:04 3,3 C 8,6 C 3,5 C 3,0 C 2,3 C 0,0 C 80 % 82 % 0 % 1024,2 hPa 0,0 l/m 6,8 km/h (2 Bft) W-SW 247 0 min 0,0 UV-I 0,2 C 0,3 C 9,7 km/h (2 Bft)
17.11.2011 15:09 3,2 C 8,6 C 3,5 C 2,8 C 2,1 C 0,0 C 80 % 82 % 0 % 1024,2 hPa 0,0 l/m 6,6 km/h (2 Bft) W-SW 247 0 min 0,0 UV-I 0,1 C 0,2 C 8,5 km/h (2 Bft)
17.11.2011 15:14 3,2 C 8,6 C 3,3 C 2,7 C 1,6 C 0,0 C 80 % 82 % 0 % 1024,2 hPa 0,0 l/m 6,9 km/h (2 Bft) S-SW 202 0 min 0,0 UV-I 0,1 C -0,5 C 6,8 km/h (2 Bft)
17.11.2011 15:18 3,2 C 8,6 C 3,3 C 2,7 C 1,6 C 0,0 C 80 % 82 % 0 % 1024,2 hPa 0,0 l/m 6,9 km/h (2 Bft) S-SW 202 0 min 0,0 UV-I 0,1 C -0,5 C 6,8 km/h (2 Bft)
17.11.2011 15:25 3,1 C 8,6 C 3,2 C 2,6 C 1,6 C 0,0 C 80 % 83 % 0 % 1024,8 hPa 0,0 l/m 5,6 km/h (1 Bft) W 270 0 min 0,0 UV-I -0,0 C -0,0 C 3,7 km/h (1 Bft)
17.11.2011 15:30 3,1 C 8,6 C 3,1 C 2,7 C 1,8 C 0,0 C 80 % 83 % 0 % 1024,8 hPa 0,0 l/m 5,0 km/h (1 Bft) S-SO 157 0 min 0,0 UV-I -0,0 C 0,5 C 5,3 km/h (1 Bft)
17.11.2011 15:35 3,1 C 8,6 C 3,1 C 3,0 C 2,7 C 0,0 C 81 % 83 % 0 % 1024,8 hPa 0,0 l/m 3,2 km/h (1 Bft) S-SW 202 0 min 0,0 UV-I 0,2 C 2,7 C 5,5 km/h (1 Bft)
17.11.2011 15:40 3,1 C 8,6 C 3,1 C 3,0 C 2,8 C 0,0 C 81 % 83 % 0 % 1024,8 hPa 0,0 l/m 2,4 km/h (1 Bft) W-SW 247 0 min 0,0 UV-I 0,2 C 2,8 C 2,3 km/h (1 Bft)
17.11.2011 15:45 3,0 C 8,6 C 2,9 C 2,8 C 2,5 C 0,0 C 81 % 83 % 0 % 1024,8 hPa 0,0 l/m 1,4 km/h (1 Bft) SW 225 0 min 0,0 UV-I 0,1 C 2,5 C 2,4 km/h (1 Bft)
17.11.2011 15:50 2,9 C 8,6 C 2,8 C 2,7 C 2,2 C 0,0 C 81 % 83 % 0 % 1024,8 hPa 0,0 l/m 1,1 km/h (1 Bft) SW 225 0 min 0,0 UV-I -0,0 C 2,2 C 2,3 km/h (1 Bft)
17.11.2011 15:55 2,8 C 8,7 C 2,7 C 2,5 C 2,0 C 0,0 C 82 % 84 % 0 % 1024,8 hPa 0,0 l/m 1,3 km/h (1 Bft) SW 225 0 min 0,0 UV-I 0,0 C 2,0 C 1,9 km/h (1 Bft)
17.11.2011 16:00 2,7 C 8,7 C 2,7 C 2,5 C 2,0 C 0,0 C 81 % 84 % 0 % 1025,0 hPa 0,0 l/m 1,3 km/h (1 Bft) W-SW 247 0 min 0,0 UV-I -0,2 C 2,0 C 0,0 km/h (0 Bft)
17.11.2011 16:14 2,6 C 8,8 C 2,5 C 2,5 C 2,2 C 0,0 C 82 % 85 % 0 % 1025,0 hPa 0,0 l/m 0,2 km/h (0 Bft) S-SW 202 0 min 0,0 UV-I -0,2 C 2,2 C 0,0 km/h (0 Bft)
17.11.2011 16:18 2,6 C 8,8 C 2,5 C 2,5 C 2,2 C 0,0 C 82 % 85 % 0 % 1025,0 hPa 0,0 l/m 0,2 km/h (0 Bft) S-SW 202 0 min 0,0 UV-I -0,2 C 2,2 C 0,0 km/h (0 Bft)
17.11.2011 16:25 2,4 C 8,8 C 2,3 C 2,2 C 1,9 C 0,0 C 83 % 85 % 0 % 1025,0 hPa 0,0 l/m 0,0 km/h (0 Bft) S-SW 202 0 min 0,0 UV-I -0,2 C 1,9 C 0,0 km/h (0 Bft)
17.11.2011 16:30 2,3 C 8,8 C 2,3 C 2,1 C 1,8 C 0,0 C 83 % 85 % 0 % 1025,0 hPa 0,0 l/m 0,0 km/h (0 Bft) SW 225 0 min 0,0 UV-I -0,3 C 1,8 C 0,0 km/h (0 Bft)
17.11.2011 16:35 2,3 C 8,8 C 2,3 C 2,1 C 1,6 C 0,0 C 83 % 86 % 0 % 1025,0 hPa 0,0 l/m 0,5 km/h (0 Bft) W-SW 247 0 min 0,0 UV-I -0,3 C 1,6 C 2,3 km/h (1 Bft)
17.11.2011 16:40 2,3 C 8,8 C 2,2 C 2,1 C 1,6 C 0,0 C 84 % 86 % 0 % 1025,3 hPa 0,0 l/m 0,5 km/h (0 Bft) S-SW 202 0 min 0,0 UV-I -0,1 C 1,6 C 0,0 km/h (0 Bft)
17.11.2011 16:45 2,1 C 8,8 C 2,1 C 1,9 C 1,5 C 0,0 C 84 % 86 % 0 % 1025,3 hPa 0,0 l/m 0,3 km/h (0 Bft) W-SW 247 0 min 0,0 UV-I -0,3 C 1,5 C 0,0 km/h (0 Bft)
17.11.2011 16:50 2,1 C 8,8 C 2,1 C 1,9 C 1,4 C 0,0 C 84 % 86 % 0 % 1025,3 hPa 0,0 l/m 0,2 km/h (0 Bft) S 180 0 min 0,0 UV-I -0,3 C 1,4 C 0,0 km/h (0 Bft)
17.11.2011 16:55 2,1 C 8,9 C 2,0 C 1,8 C 1,3 C 0,0 C 84 % 86 % 0 % 1025,3 hPa 0,0 l/m 0,0 km/h (0 Bft) S 180 0 min 0,0 UV-I -0,3 C 1,3 C 0,0 km/h (0 Bft)
17.11.2011 17:00 1,9 C 8,9 C 1,9 C 1,7 C 1,3 C 0,0 C 84 % 86 % 0 % 1025,3 hPa 0,0 l/m 0,0 km/h (0 Bft) S 180 0 min 0,0 UV-I -0,5 C 1,3 C 0,0 km/h (0 Bft)
17.11.2011 17:04 1,9 C 8,9 C 1,9 C 1,7 C 1,2 C 0,0 C 84 % 86 % 0 % 1025,3 hPa 0,0 l/m 0,0 km/h (0 Bft) SW 225 0 min 0,0 UV-I -0,5 C 1,2 C 0,0 km/h (0 Bft)
17.11.2011 17:09 1,9 C 8,9 C 1,9 C 1,6 C 1,1 C 0,0 C 84 % 87 % 0 % 1025,3 hPa 0,0 l/m 0,0 km/h (0 Bft) S 180 0 min 0,0 UV-I -0,5 C 1,1 C 0,0 km/h (0 Bft)
17.11.2011 17:14 1,8 C 8,9 C 1,7 C 1,6 C 1,2 C 0,0 C 85 % 87 % 0 % 1025,3 hPa 0,0 l/m 0,0 km/h (0 Bft) S 180 0 min 0,0 UV-I -0,4 C 1,2 C 0,0 km/h (0 Bft)
17.11.2011 17:18 1,8 C 8,9 C 1,7 C 1,6 C 1,2 C 0,0 C 85 % 87 % 0 % 1025,3 hPa 0,0 l/m 0,0 km/h (0 Bft) S 180 0 min 0,0 UV-I -0,4 C 1,2 C 0,0 km/h (0 Bft)
17.11.2011 17:25 1,6 C 8,9 C 1,7 C 1,4 C 1,0 C 0,0 C 85 % 87 % 0 % 1025,4 hPa 0,0 l/m 0,0 km/h (0 Bft) S-SO 157 0 min 0,0 UV-I -0,6 C 1,0 C 0,0 km/h (0 Bft)
17.11.2011 17:30 1,6 C 8,9 C 1,6 C 1,3 C 0,8 C 0,0 C 85 % 87 % 0 % 1025,4 hPa 0,0 l/m 0,3 km/h (0 Bft) W 270 0 min 0,0 UV-I -0,6 C 0,8 C 2,1 km/h (1 Bft)
17.11.2011 17:35 1,5 C 8,9 C 1,5 C 1,2 C 0,7 C 0,0 C 86 % 88 % 0 % 1025,4 hPa 0,0 l/m 0,3 km/h (0 Bft) W-SW 247 0 min 0,0 UV-I -0,6 C 0,7 C 0,0 km/h (0 Bft)
17.11.2011 17:40 1,5 C 9,0 C 1,5 C 1,2 C 0,7 C 0,0 C 86 % 88 % 0 % 1025,2 hPa 0,0 l/m 0,2 km/h (0 Bft) W-SW 247 0 min 0,0 UV-I -0,6 C 0,7 C 0,0 km/h (0 Bft)
17.11.2011 17:45 1,3 C 8,9 C 1,6 C 1,1 C 0,6 C 0,0 C 86 % 88 % 0 % 1025,2 hPa 0,0 l/m 0,6 km/h (0 Bft) W-SW 247 0 min 0,0 UV-I -0,8 C 0,6 C 2,6 km/h (1 Bft)
17.11.2011 17:50 1,4 C 9,0 C 1,5 C 1,2 C 0,7 C 0,0 C 86 % 88 % 0 % 1025,2 hPa 0,0 l/m 1,1 km/h (1 Bft) W-SW 247 0 min 0,0 UV-I -0,7 C 0,7 C 1,6 km/h (1 Bft)
17.11.2011 17:55 1,3 C 9,0 C 1,5 C 1,1 C 0,6 C 0,0 C 86 % 88 % 0 % 1025,2 hPa 0,0 l/m 0,6 km/h (0 Bft) SW 225 0 min 0,0 UV-I -0,8 C 0,6 C 0,0 km/h (0 Bft)
17.11.2011 18:00 1,2 C 9,0 C 1,5 C 1,0 C 0,5 C 0,0 C 86 % 88 % 0 % 1025,4 hPa 0,0 l/m 0,3 km/h (0 Bft) SW 225 0 min 0,0 UV-I -0,9 C 0,5 C 0,0 km/h (0 Bft)
17.11.2011 18:04 1,2 C 9,1 C 1,3 C 0,9 C 0,2 C 0,0 C 86 % 88 % 0 % 1025,4 hPa 0,0 l/m 0,2 km/h (0 Bft) SW 225 0 min 0,0 UV-I -0,9 C 0,2 C 0,0 km/h (0 Bft)
17.11.2011 18:09 1,1 C 9,1 C 1,2 C 0,7 C -0,2 C 0,0 C 86 % 88 % 0 % 1025,4 hPa 0,0 l/m 0,2 km/h (0 Bft) SW 225 0 min 0,0 UV-I -1,0 C -0,2 C 0,0 km/h (0 Bft)
17.11.2011 18:14 0,8 C 9,2 C 1,1 C 0,3 C -0,6 C 0,0 C 86 % 88 % 0 % 1025,4 hPa 0,0 l/m 0,0 km/h (0 Bft) W-SW 247 0 min 0,0 UV-I -1,3 C -0,6 C 0,0 km/h (0 Bft)
17.11.2011 18:18 0,8 C 9,2 C 1,1 C 0,3 C -0,6 C 0,0 C 86 % 88 % 0 % 1025,4 hPa 0,0 l/m 0,0 km/h (0 Bft) W-SW 247 0 min 0,0 UV-I -1,3 C -0,6 C 0,0 km/h (0 Bft)
17.11.2011 18:25 0,5 C 9,2 C 0,5 C -0,1 C -1,2 C 0,0 C 86 % 88 % 0 % 1024,8 hPa 0,0 l/m 0,0 km/h (0 Bft) SW 225 0 min 0,0 UV-I -1,6 C -1,2 C 0,0 km/h (0 Bft)
17.11.2011 18:30 0,4 C 9,2 C 0,4 C -0,2 C -1,4 C 0,0 C 86 % 88 % 0 % 1024,8 hPa 0,0 l/m 0,0 km/h (0 Bft) SW 225 0 min 0,0 UV-I -1,7 C -1,4 C 0,0 km/h (0 Bft)
17.11.2011 18:35 0,1 C 9,3 C 0,3 C -0,5 C -1,6 C 0,0 C 86 % 88 % 0 % 1024,8 hPa 0,0 l/m 0,0 km/h (0 Bft) SW 225 0 min 0,0 UV-I -2,0 C -1,6 C 0,0 km/h (0 Bft)
17.11.2011 18:40 -0,1 C 9,3 C 0,1 C -0,6 C -1,7 C 0,0 C 86 % 88 % 0 % 1025,6 hPa 0,0 l/m 0,0 km/h (0 Bft) SW 225 0 min 0,0 UV-I -2,2 C -1,7 C 0,0 km/h (0 Bft)
17.11.2011 18:45 -0,3 C 9,3 C -0,1 C -0,8 C -1,9 C 0,0 C 86 % 88 % 0 % 1025,6 hPa 0,0 l/m 0,0 km/h (0 Bft) SW 225 0 min 0,0 UV-I -2,3 C -1,9 C 0,0 km/h (0 Bft)
17.11.2011 18:50 -0,5 C 9,3 C -0,1 C -1,0 C -2,0 C 0,0 C 86 % 88 % 0 % 1025,6 hPa 0,0 l/m 0,0 km/h (0 Bft) SW 225 0 min 0,0 UV-I -2,5 C -2,0 C 0,0 km/h (0 Bft)
17.11.2011 18:55 -0,5 C 9,3 C -0,4 C -1,0 C -2,1 C 0,0 C 86 % 88 % 0 % 1025,6 hPa 0,0 l/m 0,0 km/h (0 Bft) SW 225 0 min 0,0 UV-I -2,5 C -2,1 C 0,0 km/h (0 Bft)
17.11.2011 19:00 -0,7 C 9,3 C -0,5 C -1,2 C -2,1 C 0,0 C 87 % 88 % 0 % 1025,6 hPa 0,0 l/m 0,0 km/h (0 Bft) SW 225 0 min 0,0 UV-I -2,6 C -2,1 C 0,0 km/h (0 Bft)
17.11.2011 19:04 -0,9 C 9,3 C -0,6 C -1,4 C -2,3 C 0,0 C 87 % 88 % 0 % 1025,6 hPa 0,0 l/m 0,0 km/h (0 Bft) SW 225 0 min 0,0 UV-I -2,8 C -2,3 C 0,0 km/h (0 Bft)
17.11.2011 19:09 -0,9 C 9,3 C -0,5 C -1,4 C -2,4 C 0,0 C 87 % 88 % 0 % 1025,6 hPa 0,0 l/m 0,0 km/h (0 Bft) SW 225 0 min 0,0 UV-I -2,8 C -2,4 C 0,0 km/h (0 Bft)
17.11.2011 19:14 -1,3 C 9,3 C -0,7 C -1,8 C -2,7 C 0,0 C 87 % 89 % 0 % 1025,6 hPa 0,0 l/m 0,0 km/h (0 Bft) SW 225 0 min 0,0 UV-I -3,2 C -2,7 C 0,0 km/h (0 Bft)
17.11.2011 19:18 -1,3 C 9,3 C -0,7 C -1,8 C -2,7 C 0,0 C 87 % 89 % 0 % 1025,6 hPa 0,0 l/m 0,0 km/h (0 Bft) SW 225 0 min 0,0 UV-I -3,2 C -2,7 C 0,0 km/h (0 Bft)
17.11.2011 19:25 -1,3 C 9,3 C -0,9 C -1,9 C -3,0 C 0,0 C 88 % 89 % 0 % 1025,6 hPa 0,0 l/m 0,0 km/h (0 Bft) SW 225 0 min 0,0 UV-I -3,0 C -3,0 C 0,0 km/h (0 Bft)
17.11.2011 19:30 -1,5 C 9,3 C -0,9 C -2,0 C -3,1 C 0,0 C 88 % 89 % 0 % 1025,6 hPa 0,0 l/m 0,0 km/h (0 Bft) W-SW 247 0 min 0,0 UV-I -3,2 C -3,1 C 0,0 km/h (0 Bft)
17.11.2011 19:35 -1,7 C 9,3 C -1,1 C -2,2 C -3,1 C 0,0 C 88 % 89 % 0 % 1025,6 hPa 0,0 l/m 0,0 km/h (0 Bft) W-SW 247 0 min 0,0 UV-I -3,4 C -3,1 C 0,0 km/h (0 Bft)
17.11.2011 19:40 -1,7 C 9,3 C -1,1 C -2,2 C -3,1 C 0,0 C 88 % 89 % 0 % 1025,6 hPa 0,0 l/m 0,0 km/h (0 Bft) SW 225 0 min 0,0 UV-I -3,4 C -3,1 C 0,0 km/h (0 Bft)
17.11.2011 19:45 -1,7 C 9,3 C -1,3 C -2,1 C -3,0 C 0,0 C 88 % 89 % 0 % 1025,6 hPa 0,0 l/m 0,0 km/h (0 Bft) SW 225 0 min 0,0 UV-I -3,4 C -3,0 C 0,0 km/h (0 Bft)
17.11.2011 19:50 -1,7 C 9,3 C -1,3 C -2,1 C -3,0 C 0,0 C 88 % 89 % 0 % 1025,6 hPa 0,0 l/m 0,0 km/h (0 Bft) SW 225 0 min 0,0 UV-I -3,4 C -3,0 C 0,0 km/h (0 Bft)
17.11.2011 19:55 -1,9 C 9,3 C -1,3 C -2,3 C -3,0 C 0,0 C 88 % 89 % 0 % 1025,6 hPa 0,0 l/m 0,0 km/h (0 Bft) SW 225 0 min 0,0 UV-I -3,6 C -3,0 C 0,0 km/h (0 Bft)
17.11.2011 20:00 -2,0 C 9,3 C -1,3 C -2,3 C -2,9 C 0,0 C 88 % 89 % 0 % 1025,4 hPa 0,0 l/m 0,0 km/h (0 Bft) SW 225 0 min 0,0 UV-I -3,7 C -2,9 C 0,0 km/h (0 Bft)
17.11.2011 20:04 -1,9 C 9,3 C -1,3 C -2,2 C -2,9 C 0,0 C 89 % 90 % 0 % 1025,4 hPa 0,0 l/m 0,0 km/h (0 Bft) SW 225 0 min 0,0 UV-I -3,5 C -2,9 C 0,0 km/h (0 Bft)
17.11.2011 20:09 -2,1 C 9,3 C -1,5 C -2,4 C -3,0 C 0,0 C 89 % 90 % 0 % 1025,4 hPa 0,0 l/m 0,0 km/h (0 Bft) SW 225 0 min 0,0 UV-I -3,7 C -3,0 C 0,0 km/h (0 Bft)
17.11.2011 20:14 -2,1 C 9,3 C -1,6 C -2,4 C -2,9 C 0,0 C 89 % 90 % 0 % 1025,4 hPa 0,0 l/m 0,0 km/h (0 Bft) SW 225 0 min 0,0 UV-I -3,7 C -2,9 C 0,0 km/h (0 Bft)
17.11.2011 20:18 -2,1 C 9,3 C -1,6 C -2,4 C -2,9 C 0,0 C 89 % 90 % 0 % 1025,4 hPa 0,0 l/m 0,0 km/h (0 Bft) SW 225 0 min 0,0 UV-I -3,7 C -2,9 C 0,0 km/h (0 Bft)
17.11.2011 20:25 -2,3 C 9,3 C -1,7 C -2,5 C -2,9 C 0,0 C 89 % 90 % 0 % 1025,4 hPa 0,0 l/m 0,0 km/h (0 Bft) SW 225 0 min 0,0 UV-I -3,9 C -2,9 C 0,0 km/h (0 Bft)
17.11.2011 20:30 -2,3 C 9,3 C -1,7 C -2,5 C -2,9 C 0,0 C 89 % 90 % 0 % 1025,4 hPa 0,0 l/m 0,0 km/h (0 Bft) SW 225 0 min 0,0 UV-I -3,9 C -2,9 C 0,0 km/h (0 Bft)
17.11.2011 20:35 -2,4 C 9,3 C -1,7 C -2,6 C -2,9 C 0,0 C 89 % 90 % 0 % 1025,4 hPa 0,0 l/m 0,0 km/h (0 Bft) SW 225 0 min 0,0 UV-I -4,0 C -2,9 C 0,0 km/h (0 Bft)
17.11.2011 20:40 -2,4 C 9,3 C -1,7 C -2,6 C -3,0 C 0,0 C 89 % 90 % 0 % 1025,4 hPa 0,0 l/m 0,0 km/h (0 Bft) SW 225 0 min 0,0 UV-I -4,0 C -3,0 C 0,0 km/h (0 Bft)
17.11.2011 20:45 -2,3 C 9,2 C -1,9 C -2,6 C -3,1 C 0,0 C 89 % 89 % 0 % 1025,4 hPa 0,0 l/m 0,0 km/h (0 Bft) SW 225 0 min 0,0 UV-I -3,9 C -3,1 C 0,0 km/h (0 Bft)
17.11.2011 20:50 -2,3 C 9,2 C -1,9 C -2,6 C -3,1 C 0,0 C 90 % 89 % 0 % 1025,4 hPa 0,0 l/m 0,0 km/h (0 Bft) SW 225 0 min 0,0 UV-I -3,7 C -3,1 C 0,0 km/h (0 Bft)
17.11.2011 20:55 -2,5 C 9,2 C -2,0 C -2,7 C -3,1 C 0,0 C 90 % 90 % 0 % 1025,4 hPa 0,0 l/m 0,0 km/h (0 Bft) SW 225 0 min 0,0 UV-I -3,9 C -3,1 C 0,0 km/h (0 Bft)
17.11.2011 21:00 -2,5 C 9,2 C -1,9 C -2,7 C -3,1 C 0,0 C 90 % 90 % 0 % 1025,1 hPa 0,0 l/m 0,0 km/h (0 Bft) SW 225 0 min 0,0 UV-I -3,9 C -3,1 C 0,0 km/h (0 Bft)
17.11.2011 21:04 -2,5 C 9,2 C -1,9 C -2,7 C -3,1 C 0,0 C 90 % 90 % 0 % 1025,1 hPa 0,0 l/m 0,0 km/h (0 Bft) SW 225 0 min 0,0 UV-I -3,9 C -3,1 C 0,0 km/h (0 Bft)
17.11.2011 21:09 -2,5 C 9,2 C -2,0 C -2,7 C -3,0 C 0,0 C 90 % 90 % 0 % 1025,1 hPa 0,0 l/m 0,0 km/h (0 Bft) SW 225 0 min 0,0 UV-I -3,9 C -3,0 C 0,0 km/h (0 Bft)
17.11.2011 21:14 -2,5 C 9,2 C -2,1 C -2,7 C -3,1 C 0,0 C 90 % 90 % 0 % 1025,1 hPa 0,0 l/m 0,0 km/h (0 Bft) SW 225 0 min 0,0 UV-I -3,9 C -3,1 C 0,0 km/h (0 Bft)
17.11.2011 21:18 -2,5 C 9,2 C -2,1 C -2,7 C -3,1 C 0,0 C 90 % 90 % 0 % 1025,1 hPa 0,0 l/m 0,0 km/h (0 Bft) SW 225 0 min 0,0 UV-I -3,9 C -3,1 C 0,0 km/h (0 Bft)
17.11.2011 21:25 -2,5 C 9,2 C -2,0 C -2,8 C -3,3 C 0,0 C 90 % 90 % 0 % 1025,3 hPa 0,0 l/m 0,0 km/h (0 Bft) SW 225 0 min 0,0 UV-I -3,9 C -3,3 C 0,0 km/h (0 Bft)
17.11.2011 21:30 -2,5 C 9,2 C -1,9 C -2,9 C -3,6 C 0,0 C 90 % 90 % 0 % 1025,3 hPa 0,0 l/m 0,0 km/h (0 Bft) SW 225 0 min 0,0 UV-I -3,9 C -3,6 C 0,0 km/h (0 Bft)
17.11.2011 21:35 -2,7 C 9,2 C -2,1 C -3,0 C -3,7 C 0,0 C 90 % 90 % 0 % 1025,3 hPa 0,0 l/m 0,0 km/h (0 Bft) SW 225 0 min 0,0 UV-I -4,1 C -3,7 C 0,0 km/h (0 Bft)
17.11.2011 21:40 -2,8 C 9,2 C -2,1 C -3,1 C -3,7 C 0,0 C 90 % 90 % 0 % 1025,5 hPa 0,0 l/m 0,0 km/h (0 Bft) W-SW 247 0 min 0,0 UV-I -4,2 C -3,7 C 0,0 km/h (0 Bft)
17.11.2011 21:45 -2,7 C 9,2 C -2,1 C -3,0 C -3,7 C 0,0 C 90 % 90 % 0 % 1025,5 hPa 0,0 l/m 0,0 km/h (0 Bft) SW 225 0 min 0,0 UV-I -4,1 C -3,7 C 0,0 km/h (0 Bft)
17.11.2011 21:50 -2,8 C 9,2 C -2,1 C -3,1 C -3,7 C 0,0 C 90 % 90 % 0 % 1025,5 hPa 0,0 l/m 0,0 km/h (0 Bft) SW 225 0 min 0,0 UV-I -4,2 C -3,7 C 0,0 km/h (0 Bft)
17.11.2011 21:55 -2,8 C 9,2 C -2,1 C -3,1 C -3,7 C 0,0 C 90 % 90 % 0 % 1025,5 hPa 0,0 l/m 0,0 km/h (0 Bft) S 180 0 min 0,0 UV-I -4,2 C -3,7 C 0,0 km/h (0 Bft)
17.11.2011 22:00 -2,8 C 9,2 C -2,1 C -3,1 C -3,6 C 0,0 C 91 % 90 % 0 % 1025,6 hPa 0,0 l/m 0,0 km/h (0 Bft) S 180 0 min 0,0 UV-I -4,1 C -3,6 C 0,0 km/h (0 Bft)
17.11.2011 22:04 -2,7 C 9,2 C -2,1 C -2,9 C -3,4 C 0,0 C 91 % 91 % 0 % 1025,6 hPa 0,0 l/m 0,3 km/h (0 Bft) S-SW 202 0 min 0,0 UV-I -4,0 C -3,4 C 2,6 km/h (1 Bft)
17.11.2011 22:09 -2,5 C 9,2 C -1,7 C -2,5 C -2,6 C 0,0 C 91 % 91 % 0 % 1025,6 hPa 0,0 l/m 1,3 km/h (1 Bft) S 180 0 min 0,0 UV-I -3,8 C -2,6 C 3,2 km/h (1 Bft)
17.11.2011 22:14 -1,6 C 9,2 C -0,9 C -1,7 C -2,0 C 0,0 C 92 % 92 % 0 % 1025,6 hPa 0,0 l/m 2,7 km/h (1 Bft) SO 135 0 min 0,0 UV-I -2,7 C -2,0 C 3,7 km/h (1 Bft)
17.11.2011 22:18 -1,6 C 9,2 C -0,9 C -1,7 C -2,0 C 0,0 C 92 % 92 % 0 % 1025,6 hPa 0,0 l/m 2,7 km/h (1 Bft) SO 135 0 min 0,0 UV-I -2,7 C -2,0 C 3,7 km/h (1 Bft)
17.11.2011 22:25 -0,8 C 9,2 C -0,1 C -0,4 C -0,4 C 0,4 C 92 % 93 % 0 % 1025,6 hPa 0,0 l/m 2,1 km/h (1 Bft) S-SO 157 0 min 0,0 UV-I -1,9 C -0,4 C 4,8 km/h (1 Bft)
17.11.2011 22:30 -0,5 C 9,2 C 0,0 C -0,5 C -0,6 C 0,0 C 92 % 93 % 0 % 1025,6 hPa 0,0 l/m 2,7 km/h (1 Bft) S 180 0 min 0,0 UV-I -1,6 C -0,6 C 6,1 km/h (2 Bft)
17.11.2011 22:35 -0,3 C 9,2 C 0,3 C 0,0 C 0,0 C 0,3 C 92 % 93 % 0 % 1025,6 hPa 0,0 l/m 2,3 km/h (1 Bft) SW 225 0 min 0,0 UV-I -1,4 C 0,0 C 0,0 km/h (0 Bft)
17.11.2011 22:40 -0,1 C 9,2 C 0,3 C 0,0 C 0,0 C 0,1 C 93 % 92 % 0 % 1025,6 hPa 0,0 l/m 1,8 km/h (1 Bft) SW 225 0 min 0,0 UV-I -1,1 C 0,0 C 3,4 km/h (1 Bft)
17.11.2011 22:45 -0,1 C 9,2 C 0,4 C 0,0 C 0,0 C 0,1 C 93 % 92 % 0 % 1025,6 hPa 0,0 l/m 2,1 km/h (1 Bft) S 180 0 min 0,0 UV-I -1,1 C 0,0 C 3,5 km/h (1 Bft)
17.11.2011 22:50 0,0 C 9,2 C 0,5 C 0,1 C 0,1 C 0,1 C 93 % 92 % 0 % 1025,6 hPa 0,0 l/m 1,8 km/h (1 Bft) W 270 0 min 0,0 UV-I -1,0 C 0,1 C 3,1 km/h (1 Bft)
17.11.2011 22:55 0,3 C 9,2 C 0,7 C 0,5 C 0,5 C 0,2 C 93 % 92 % 0 % 1025,6 hPa 0,0 l/m 1,3 km/h (1 Bft) W-SW 247 0 min 0,0 UV-I -0,7 C 0,5 C 3,4 km/h (1 Bft)
17.11.2011 23:00 0,4 C 9,2 C 0,7 C 0,6 C 0,6 C 0,2 C 93 % 92 % 0 % 1025,6 hPa 0,0 l/m 1,3 km/h (1 Bft) W-SW 247 0 min 0,0 UV-I -0,6 C 0,6 C 0,0 km/h (0 Bft)
17.11.2011 23:04 0,5 C 9,2 C 0,8 C 0,7 C 0,7 C 0,2 C 93 % 92 % 0 % 1025,6 hPa 0,0 l/m 1,3 km/h (1 Bft) S 180 0 min 0,0 UV-I -0,5 C 0,7 C 2,4 km/h (1 Bft)
17.11.2011 23:09 0,7 C 9,2 C 1,0 C 0,9 C 0,9 C 0,2 C 93 % 93 % 0 % 1025,6 hPa 0,0 l/m 1,6 km/h (1 Bft) SW 225 0 min 0,0 UV-I -0,3 C 0,9 C 2,6 km/h (1 Bft)
17.11.2011 23:14 0,8 C 9,2 C 1,2 C 1,1 C 1,1 C 0,3 C 93 % 93 % 0 % 1025,6 hPa 0,0 l/m 2,1 km/h (1 Bft) SW 225 0 min 0,0 UV-I -0,2 C 1,1 C 0,0 km/h (0 Bft)
17.11.2011 23:18 0,8 C 9,2 C 1,2 C 1,1 C 1,1 C 0,3 C 93 % 93 % 0 % 1025,6 hPa 0,0 l/m 2,1 km/h (1 Bft) SW 225 0 min 0,0 UV-I -0,2 C 1,1 C 0,0 km/h (0 Bft)
17.11.2011 23:25 1,0 C 9,2 C 1,4 C 1,2 C 1,2 C 0,2 C 93 % 92 % 0 % 1025,6 hPa 0,0 l/m 1,3 km/h (1 Bft) N 360 0 min 0,0 UV-I -0,0 C 1,2 C 5,5 km/h (1 Bft)
17.11.2011 23:30 1,1 C 9,2 C 1,4 C 1,3 C 1,3 C 0,2 C 93 % 93 % 0 % 1025,6 hPa 0,0 l/m 1,9 km/h (1 Bft) S 180 0 min 0,0 UV-I 0,1 C 1,3 C 3,2 km/h (1 Bft)
17.11.2011 23:35 1,2 C 9,2 C 1,5 C 0,9 C 0,3 C 0,0 C 93 % 93 % 0 % 1025,6 hPa 0,0 l/m 4,0 km/h (1 Bft) S 180 0 min 0,0 UV-I 0,2 C 0,3 C 6,6 km/h (2 Bft)
17.11.2011 23:40 1,2 C 9,2 C 1,7 C 0,8 C 0,0 C 0,0 C 93 % 93 % 0 % 1025,5 hPa 0,0 l/m 5,0 km/h (1 Bft) W-SW 247 0 min 0,0 UV-I 0,2 C -1,6 C 5,3 km/h (1 Bft)
17.11.2011 23:45 1,5 C 9,2 C 1,7 C 1,1 C 0,3 C 0,0 C 93 % 93 % 0 % 1025,5 hPa 0,0 l/m 4,8 km/h (1 Bft) W-SW 247 0 min 0,0 UV-I 0,5 C -1,2 C 2,7 km/h (1 Bft)
17.11.2011 23:50 1,5 C 9,2 C 1,7 C 1,3 C 0,9 C 0,0 C 93 % 93 % 0 % 1025,5 hPa 0,0 l/m 3,7 km/h (1 Bft) W-NW 292 0 min 0,0 UV-I 0,5 C 0,9 C 3,5 km/h (1 Bft)
17.11.2011 23:55 1,5 C 9,2 C 1,7 C 1,6 C 1,6 C 0,1 C 93 % 93 % 0 % 1025,5 hPa 0,0 l/m 2,3 km/h (1 Bft) W-SW 247 0 min 0,0 UV-I 0,5 C 1,6 C 0,0 km/h (0 Bft)
_ Min-Zeit 05:45 10:35 05:35 05:45 05:25 00:00 14:25 15:04 00:00 03:00 - 00:25 - - - 00:00 05:45 05:25 00:04
Minimum _ -3,9 C 8,4 C -3,5 C -4,3 C -5,0 C 0,0 C 80 % 82 % 0 % 1023,9 hPa - 0,0 km/h (0 Bft) - - - 0,0 UV-I -5,0 C -5,0 C 0,0 km/h (0 Bft)
_ Max-Zeit 14:50 00:00 15:04 12:14 12:14 12:14 00:00 00:00 12:14 18:40 00:00 15:14 - - 00:00 00:00 23:45 12:14 10:50
Maximum _ 3,3 C 9,3 C 3,5 C 3,4 C 3,4 C 1,1 C 93 % 93 % 29 % 1025,6 hPa 0,0 l/m 6,9 km/h
S-SW (2 Bft)
- - 0 min 0,0 UV-I 0,5 C 3,4 C 17,5 km/h
W-SW (3 Bft)
Durchschnitt _ -0,6 C 9,0 C -0,2 C -0,7 C -1,1 C 0,1 C 89 % 90 % 2 % 1024,8 hPa #0,0 l/m 1,6 km/h (1 Bft) W-SW - #0 min. 0,0 UV-I -2,2 C -1,3 C 2,2 km/h (1 Bft)
2011 www.wetterstation-wechselburg.de